Location: ????????
(38.4362°N, 22.8767°E)
Time: 05:52:55
(UTC+00:00)

Cosmos 1515 Rocket - Visible Passes

Search period start: 13 July 2024 00:00
Search period end: 23 July 2024 00:00
Orbit: 604 x 625 km, 82.5° (Epoch: 12 July)

Date Brightness Start Highest point End Pass type
(mag) Time Alt. Az. Time Alt. Az. Time Alt. Az.
13 Jul 6.6 01:09:02 10° NE 01:10:59 13° ENE 01:12:55 10° E visible
14 Jul 6.0 01:23:37 10° NNE 01:27:07 22° ENE 01:30:34 10° SE visible
15 Jul 4.9 01:38:57 10° N 01:43:08 40° ENE 01:47:16 10° SSE visible
16 Jul 3.7 01:54:37 10° N 01:59:04 76° E 02:03:28 10° SSE visible
17 Jul 6.5 00:35:17 10° NE 00:36:46 11° ENE 00:38:14 10° E visible
17 Jul 3.7 02:10:34 10° NNW 02:14:55 57° W 02:19:13 10° S visible
18 Jul 6.0 00:49:35 10° NNE 00:52:54 20° ENE 00:56:11 10° ESE visible
18 Jul 4.4 02:26:48 10° NNW 02:30:40 30° W 02:34:31 10° SSW visible
19 Jul 5.0 01:04:50 10° N 01:08:57 36° ENE 01:12:59 10° SE visible
19 Jul 5.2 02:43:31 10° NW 02:46:21 17° W 02:49:11 10° SW visible
20 Jul 3.8 01:20:28 10° N 01:24:52 68° E 01:28:08 18° SSE visible
21 Jul 6.5 00:01:49 10° ENE 00:02:31 10° ENE 00:03:13 10° ENE visible
21 Jul 3.5 01:36:21 10° NNW 01:40:43 63° W 01:43:09 25° SSW visible
22 Jul 6.0 00:15:32 10° NNE 00:18:40 19° ENE 00:21:14 12° ESE visible
22 Jul 4.3 01:52:32 10° NNW 01:56:30 33° W 01:58:14 24° SW visible
